User: anonymous   Login
Location: Unspecified
(0.0000°N, 0.0000°E)
Time: 12:58:48
(UTC+00:00)
Language:

MERIDIAN 3 - Orbit

View from above orbital plane
View from above orbital plane
View from above satellite
View from above satellite

Ground track
Ground track

The orbit data is extracted from the following two-line orbital elements,

1 37212U 10058A   17351.68089124 -.00000065  00000-0  10000-3 0  9990
2 37212  63.3416  52.2477 6991445 274.2119 345.8779  2.00623238 52197
Epoch (UTC): 17 December 2017 16:20:29
Eccentricity: 0.6991445
inclination: 63.3416°
perigee height: 1611 km
apogee height: 38742 km
right ascension of ascending node: 52.2477°
argument of perigee: 274.2119°
revolutions per day: 2.00623238
mean anomaly at epoch: 345.8779°
orbit number at epoch: 5219

The dashed part of the orbit path shows where the satellite is in the earth's shadow,  

DLR